Regional Weather Roundup
Issued by NWS

Home | Current Version | Previous Version | Text Only | Print | Product List | Glossary On
Versions: 1 2 3 4 5 6 7 8 9 10 11 12 13 14 15 16 17 18 19 20 21 22 23 24 25 26 27 28 29 30 31 32 33 34 35 36 37 38 39 40 41 42 43 44 45 46 47 48 49 50
000
ASUS43 KDTX 220701
RWRMI
MICHIGAN HOURLY REGIONAL WEATHER ROUNDUP
NATIONAL WEATHER SERVICE DETROIT/PONTIAC MI
200 AM EST MON DEC 22 2014

NOTE: "FAIR" INDICATES FEW OR NO CLOUDS BELOW 12,000 FEET WITH NO
SIGNIFICANT WEATHER AND/OR OBSTRUCTION TO VISIBILITY.

MIZ047>049-052>055-059>063-066>070-074>076-081>083-220800-
SOUTHEAST LOWER MICHIGAN

CITY           SKY/WX    TMP DP  RH WIND       PRES   REMARKS
ADRIAN         PTCLDY    25  22  88 E5        30.14F FOG     WCI  19
ALMA           CLEAR     28  26  91 SE5       30.11S FOG     WCI  23
ANN ARBOR      MOCLDY    26  23  88 E5        30.14F FOG     WCI  20
BAD AXE        CLOUDY    30  26  83 S7        30.16F WCI  23
CARO           CLOUDY    30  24  79 SE8       30.15S WCI  22
DETROIT CITY   PTCLDY    29  22  75 SE3       30.17F
DETROIT        MOCLDY    27  23  85 E5        30.17F FOG     WCI  22
FLINT          MOCLDY    30  23  75 SE9       30.14F HAZE    WCI  22
GROSSE ILE     PTCLDY    28  25  86 E3        30.15F
HILLSDALE      PTCLDY    27  24  89 SE9       30.08F FOG     WCI  18
HOWELL         PTCLDY    27  25  93 SE7       30.12F FOG     WCI  19

CITY           SKY/WX    TMP DP  RH WIND       PRES   REMARKS
JACKSON        PTCLDY    27  23  85 SE8       30.10F FOG     WCI  19
LAMBERTVILLE   MOCLDY    28  23  80 E3        30.15F
LANSING        CLEAR     28  24  85 SE12      30.11F FOG     WCI  18
LAPEER         FAIR      27  24  87 SE3       30.15F
MASON          PTCLDY    27  24  87 SE10      30.10F FOG     WCI  18
MONROE         MOCLDY    30  25  80 SE7       30.14F WCI  23
MT. CLEMENS    CLOUDY    31  26  82 SE9       30.15F WCI  23
PONTIAC        PTCLDY    26  23  88 SE5       30.14F FOG     WCI  20
PORT HOPE        N/A     31  24  75 S7        30.16S WCI  24
PORT HURON     CLOUDY    25  23  93 CALM      30.18F FOG
TRI CITIES     PTCLDY    31  23  72 SE10      30.13F WCI  22
TROY           PTCLDY    28  25  86 CALM      30.18S FOG
SAGINAW HB     CLOUDY    32  27  80 SE8       30.14S WCI  25
$$
MIZ043>046-050>051-056>058-064>065-071>073-077>080-220800-
SOUTHWEST LOWER MICHIGAN

CITY           SKY/WX    TMP DP  RH WIND       PRES   REMARKS
BATTLE CREEK   MOCLDY    29  23  78 SE8       30.08F WCI  21
BENTON HARBOR  PTCLDY    29  25  85 SE9       30.05F WCI  20
BIG RAPIDS     PTCLDY    29  28  96 S6        30.06F FOG     WCI  22
COLDWATER      PTCLDY    28  24  84 MISG      30.08F
FREMONT        FAIR      29  26  86 SE7       30.06S WCI  22
HOLLAND        MOCLDY    31  24  75 SE7       30.06F WCI  24
GRAND RAPIDS   PTCLDY    29  24  82 SE12      30.08F WCI  19
IONIA          FAIR      29  26  88 SE10      30.09S WCI  20
KALAMAZOO      MOCLDY    29  23  78 SE3       30.08F
LUDINGTON      MOCLDY    33  27  81 SE8         N/A  WCI  25
MARSHALL       PTCLDY    26  23  87 SE5       30.08F WCI  20
MOUNT PLEASANT PTCLDY    28  25  89 CALM      30.10S FOG
MUSKEGON       CLOUDY    32  25  75 SE12      30.06F WCI  23
SOUTH HAVEN    MOCLDY    31  26  80 SE8       30.05F WCI  24
$$
MIZ016>042-220800-
NORTHERN LOWER MICHIGAN

CITY           SKY/WX    TMP DP  RH WIND       PRES   REMARKS
ALPENA         CLOUDY    31  25  78 S12       30.14S WCI  22
BEAVER ISLAND  CLOUDY    33  30  90 SE7       30.04F FOG     WCI  27
BELLAIRE       MOCLDY    32  27  81 SE7       30.07F WCI  26
CADILLAC       MOCLDY    28  25  89 SE8       30.04S FOG     WCI  20
CHARLEVOIX     MOCLDY    32  28  83 SE12      30.08F WCI  23
FRANKFORT      CLOUDY    32  28  83 S6        30.04F WCI  26
GAYLORD        CLOUDY    28  24  85 S13       30.05F WCI  17
GRAYLING       MOCLDY    28  25  86 SE7       30.08F WCI  21
HARBOR SPRINGS CLOUDY    32  26  80 SE5       30.07S WCI  27
HOUGHTON LAKE  PTCLDY    24  21  88 E5        30.08F WCI  18
MANISTEE       MOCLDY    30  25  80 SE8       30.05S WCI  23
OSCODA         CLOUDY    31  26  81 S7        30.15F WCI  25
PELLSTON       CLOUDY    32  26  78 SE9       30.08S WCI  24
ROGERS CITY    CLOUDY    31  28  88 SE7       30.13F WCI  24
TRAVERSE CITY  CLOUDY    32  27  81 SE6       30.04F WCI  26
$$
MIZ007>008-015-220800-
EASTERN UPPER MICHIGAN

CITY           SKY/WX    TMP DP  RH WIND       PRES   REMARKS
KINROSS        CLOUDY    32  30  93 S8        30.07S WCI  25
MACKINAC ISLAN CLOUDY    32  27  82 S12G21    30.07S WCI  23
NEWBERRY       CLOUDY    32  30  93 S13G20    30.01F WCI  22
S. S. MARIE    CLOUDY    32  28  85 SE9       30.06F WCI  24
MUNISING         N/A     37  32  82 S17G24    29.93F WCI  27
$$
MIZ004>006-011>014-085-220800-
CENTRAL UPPER MICHIGAN

CITY           SKY/WX    TMP DP  RH WIND       PRES   REMARKS
MANISTIQUE     CLOUDY    34  32  94 S13G23    30.00F WCI  25
ESCANABA       CLOUDY    36  32  87 S13G18    29.96S WCI  27
MENOMINEE      CLOUDY    36  30  80 S13G21    29.95F WCI  27
SAWYER-GWINN   LGT SNOW  33  32  95 S20G25    29.90S WCI  22
$$
MIZ001>003-009>011-084-220800-
WESTERN UPPER MICHIGAN

CITY           SKY/WX    TMP DP  RH WIND       PRES   REMARKS
IRON MOUNTAIN  CLOUDY    33  31  92 S10       29.89F FOG     WCI  25
HOUGHTON       CLOUDY    32  31  96 SE7       29.83S FOG     WCI  26
COPPER HARBOR    N/A     35  32  88 SW12G18   29.86S WCI  27
IRONWOOD       CLOUDY    36  34  93 S8G18     29.75S WCI  29
$$

ABBREVIATIONS USED IN REMARKS
   TC - TEMPERATURE IN CELSIUS
  WCI - WIND CHILL INDEX
   HX - HEAT INDEX
  VSB - VISIBILITY




USA.gov is the U.S. government's official web portal to all federal, state and local government web resources and services.